Wind_Speed
14 14 16 15 14 12 10 8 8 8 7 7 6 7 7 5 5 5 5 7 8 9 10 13 13 12 13 12 13 16 16 16 17 21 18 20 21 21 22 23 25 28 29
12 19 17 16 14 12 10 9 8 7 6 6 7 7 5 4 4 4 5 6 7 8 8 11 11 11 11 12 13 15 16 17 19 18 20 18 20 19 22 23 25 26 29
13 19 18 16 13 12 10 9 8 7 6 6 6 5 4 3 4 4 4 5 6 6 6 8 10 9 10 10 14 15 16 15 15 14 16 17 19 19 19 21 23 25 27
13 14 17 15 12 10 9 8 7 6 6 6 6 5 4 4 5 5 4 4 4 5 4 7 8 9 9 11 15 16 15 14 12 12 11 14 16 17 18 21 22 24 25
14 9 15 15 12 10 8 7 6 5 5 6 6 6 5 5 5 5 5 5 5 4 3 5 7 8 9 12 15 14 12 14 13 11 14 16 17 17 18 19 20 22 23
14 9 11 11 12 12 11 6 5 4 5 6 5 6 6 6 5 4 4 5 6 4 2 4 6 7 8 11 13 12 13 13 10 14 15 16 17 18 18 17 19 20 22
15 14 11 11 14 12 10 9 5 4 4 5 5 6 6 6 5 5 4 5 6 4 2 3 5 5 6 8 11 10 11 11 11 10 12 13 15 15 16 15 15 16 18
14 12 10 13 15 13 11 11 8 5 4 6 5 7 5 5 5 6 6 6 6 3 2 3 4 4 5 6 9 10 8 10 8 8 10 12 12 14 16 17 15 14 15
12 12 11 12 17 14 13 13 11 7 5 6 6 7 7 5 6 6 6 7 5 4 3 1 2 3 4 5 7 12 8 10 7 6 8 9 10 12 11 14 14 15 16
14 10 11 8 16 16 15 14 13 10 8 7 8 8 7 7 7 6 7 7 6 4 3 2 0 2 3 5 7 13 8 6 5 4 5 9 8 8 7 13 11 10 10
15 14 12 10 10 10 11 12 14 13 11 9 10 10 9 7 4 6 6 7 7 6 5 5 3 1 1 3 8 13 11 3 2 3 3 6 5 4 5 12 5 5 5
16 15 16 12 15 15 15 15 14 15 12 11 10 11 9 4 7 3 6 6 7 7 7 6 6 2 2 3 10 11 10 3 3 1 1 3 5 6 13 13 10 9 13
17 16 15 12 14 15 18 18 14 13 11 11 11 11 9 8 13 10 10 9 10 10 10 10 8 5 3 3 4 9 6 5 6 2 1 0 2 12 14 17 15 16 19
19 20 18 15 15 11 11 12 9 8 9 10 11 12 13 14 12 11 13 10 9 9 12 11 10 7 8 8 1 6 5 5 5 3 1 7 10 11 13 14 18 19 17
24 23 18 18 16 14 12 7 6 6 4 3 4 7 11 13 13 13 12 10 9 12 10 11 11 10 9 9 9 6 9 9 7 3 1 12 12 10 11 15 17 19 17
16 22 20 18 19 15 12 10 11 12 5 6 6 7 8 9 10 11 9 10 13 12 11 13 13 12 14 12 15 11 10 12 11 6 11 13 12 11 11 14 15 17 18
21 22 22 18 16 19 15 13 18 16 18 13 16 11 7 5 9 8 6 8 10 12 12 14 13 13 14 15 18 14 12 11 8 5 12 15 13 11 11 13 13 15 16
21 22 20 20 19 18 19 18 17 16 15 17 15 18 17 16 16 11 9 9 13 14 14 13 15 15 19 21 20 19 15 7 6 12 12 14 15 13 11 13 12 12 14
25 22 25 23 20 19 20 19 18 13 12 11 8 12 14 15 15 13 13 14 15 14 15 15 15 17 21 23 22 23 14 18 18 16 15 14 15 15 14 13 11 11 12
23 22 25 23 21 21 21 21 17 16 16 13 16 19 17 12 13 16 12 14 15 13 15 15 17 19 22 20 25 22 21 21 22 19 16 16 14 14 13 10 11 11 10
27 25 23 24 25 23 24 22 19 16 16 19 21 20 21 15 14 15 15 13 11 13 14 16 17 20 19 18 25 21 18 21 21 15 15 14 12 12 13 9 10 9 9
30 28 24 27 25 27 24 20 16 15 13 13 14 18 17 17 18 19 18 14 12 11 12 16 19 21 20 19 24 21 14 16 18 18 17 17 14 14 13 10 11 9 9
31 27 28 25 24 24 22 22 21 19 16 15 16 19 20 13 16 15 14 12 11 11 13 15 18 19 18 18 23 18 11 8 24 20 19 20 18 17 14 12 10 11 11
33 26 27 25 24 23 22 22 21 20 18 15 11 8 8 11 15 14 15 14 11 12 13 16 16 17 17 20 25 25 20 20 17 15 24 26 18 21 17 15 16 9 10
27 26 25 23 21 20 21 18 15 13 8 5 7 7 8 12 14 13 12 14 13 12 12 16 16 18 15 18 19 29 22 15 21 22 22 25 23 17 17 16 14 13 10
24 26 25 23 22 23 20 15 13 11 13 13 13 13 11 14 16 14 11 9 7 10 11 14 13 17 14 17 17 15 33 26 24 25 20 30 27 19 17 16 17 18 19
Wind_Direction
192 188 171 160 160 158 153 154 144 140 130 134 140 128 118 104 68 67 71 84 97 74 67 54 53 54 65 63 65 73 63 55 45 46 57 65 57 58 56 53 49 45 38
187 170 169 162 160 156 153 151 149 152 159 141 137 142 132 110 85 83 98 97 99 84 64 49 47 47 59 65 65 76 65 57 50 48 47 65 61 57 57 55 52 48 45
177 168 168 164 162 160 156 147 148 147 149 156 157 151 143 126 110 109 112 114 111 100 86 42 44 48 62 63 74 75 65 65 66 55 50 60 62 59 58 55 54 51 48
179 175 170 166 165 165 158 146 145 147 149 145 163 166 170 135 129 122 120 134 129 110 79 45 42 50 55 66 75 78 78 64 57 54 66 59 70 66 60 57 55 53 53
171 196 179 173 171 163 170 160 157 154 155 154 165 170 177 152 146 140 138 149 147 138 86 51 47 51 59 69 81 88 74 68 49 63 68 63 66 65 61 58 56 56 55
165 201 190 184 182 164 189 183 169 171 163 160 163 176 182 167 169 143 152 157 155 154 94 54 44 55 71 80 88 86 77 70 55 61 68 68 67 62 63 61 61 59 60
163 196 208 209 191 181 191 187 199 192 191 180 178 172 173 174 172 159 178 178 173 157 108 49 41 58 82 91 97 86 76 65 49 49 58 61 62 61 64 63 62 62 61
172 201 220 205 196 197 199 197 200 200 202 212 190 177 178 184 183 180 187 185 179 165 151 22 38 69 99 97 97 108 86 74 65 37 54 59 57 58 64 67 64 65 61
171 199 234 209 195 205 203 212 209 209 219 221 208 199 192 176 195 188 189 189 189 188 174 29 50 59 115 105 92 118 89 75 73 55 36 57 60 61 66 76 76 69 62
169 188 233 231 202 207 204 211 217 214 224 229 215 215 208 201 204 196 200 199 198 201 210 231 235 33 100 106 91 124 94 84 47 51 53 73 75 71 67 75 73 67 56
182 179 195 200 211 212 226 222 228 225 225 225 217 219 215 214 216 215 207 208 210 222 223 230 236 306 92 108 99 116 103 132 16 59 67 85 53 31 73 86 64 49 35
191 191 210 214 214 206 214 234 235 228 235 232 223 225 220 150 228 257 241 233 234 233 229 225 233 215 174 130 107 98 103 208 285 8 93 41 1 75 96 93 87 85 81
206 202 202 211 203 232 218 224 231 230 225 219 215 218 200 198 234 225 239 259 264 245 230 225 225 203 155 69 89 99 105 202 244 233 202 175 50 107 108 98 97 92 86
198 207 205 207 226 223 222 216 221 226 235 233 231 231 221 219 209 217 228 247 254 237 238 236 235 211 149 178 61 116 172 214 206 201 279 139 119 115 108 107 103 98 92
212 210 203 203 200 212 226 225 219 245 235 277 238 278 242 232 237 232 242 234 237 244 238 236 231 216 193 177 186 170 193 209 224 256 199 136 138 134 117 109 105 98 95
203 195 187 201 202 206 213 193 198 206 201 220 263 266 296 278 250 246 228 229 251 250 246 250 239 223 201 198 181 165 198 211 229 267 150 148 144 142 130 118 107 105 100
215 208 197 204 207 193 197 208 212 213 210 205 211 205 232 253 272 265 239 248 249 249 240 237 239 219 192 199 187 175 154 202 232 221 158 160 153 149 147 127 116 110 104
211 203 188 189 193 199 198 207 222 229 220 217 218 223 226 219 232 226 223 249 242 250 252 241 236 212 199 201 197 188 167 169 158 155 175 173 159 153 148 144 132 120 112
212 214 204 191 197 206 194 206 221 215 225 223 205 246 245 239 242 244 237 229 252 256 252 247 237 225 204 215 208 201 193 169 167 167 185 188 168 160 149 139 141 131 122
205 216 200 199 198 197 193 211 223 222 227 221 225 234 258 246 252 257 250 240 255 256 256 243 229 218 217 228 199 195 185 180 176 182 178 176 175 163 160 151 145 142 134
207 202 198 200 204 199 202 215 232 236 243 241 250 254 255 238 223 247 261 252 247 265 256 234 222 227 219 219 197 191 188 195 185 205 191 173 176 173 170 194 162 157 150
209 209 208 210 210 203 212 209 234 256 260 260 261 261 261 240 234 241 246 253 254 242 248 234 225 216 216 222 202 200 159 169 183 190 182 176 176 188 189 196 189 200 181
200 206 205 208 201 209 209 203 210 212 223 232 239 257 270 231 248 237 245 250 237 231 242 242 226 224 222 211 208 194 158 173 183 187 195 192 197 195 197 196 178 196 198
190 199 204 201 198 210 216 217 226 228 237 254 265 282 223 206 234 243 227 241 235 235 247 240 238 231 232 238 214 213 197 189 178 191 207 212 200 216 198 201 185 194 197
176 188 190 196 194 198 221 220 225 227 231 212 234 242 203 206 222 244 244 246 247 233 241 235 226 234 219 222 223 208 197 186 194 187 196 202 210 226 190 190 171 197 178
176 175 177 189 194 206 217 213 212 213 190 202 215 229 208 214 217 235 253 232 223 224 235 235 234 202 222 221 225 216 216 208 214 208 200 203 207 207 190 193 198 211 216
Height
1500 1502 1505 1507 1510 1512 1513 1516 1516 1518 1519 1520 1521 1522 1523 1524 1525 1526 1526 1527 1527 1527 1528 1528 1527 1526 1526 1526 1525 1525 1525 1524 1523 1522 1521 1519 1518 1516 1514 1511 1509 1506 1504
1498 1501 1505 1506 1509 1511 1514 1515 1517 1518 1520 1520 1522 1522 1523 1524 1526 1527 1528 1528 1529 1529 1529 1529 1529 1529 1527 1528 1528 1528 1527 1526 1526 1525 1524 1522 1520 1519 1517 1515 1512 1510 1508
1498 1501 1504 1507 1509 1511 1514 1516 1517 1518 1520 1521 1523 1523 1524 1525 1526 1528 1529 1529 1530 1531 1531 1531 1531 1531 1530 1529 1530 1530 1530 1529 1529 1528 1527 1525 1523 1522 1520 1518 1515 1513 1512
1500 1502 1504 1506 1509 1512 1514 1516 1518 1519 1520 1521 1523 1524 1525 1525 1526 1528 1530 1530 1530 1532 1532 1533 1533 1532 1532 1531 1532 1533 1532 1531 1530 1530 1529 1528 1526 1525 1522 1520 1518 1516 1515
1502 1503 1504 1507 1510 1513 1515 1516 1519 1520 1521 1522 1524 1524 1525 1526 1527 1528 1529 1531 1531 1532 1533 1533 1534 1534 1533 1534 1534 1534 1534 1533 1532 1532 1531 1530 1529 1528 1525 1523 1522 1519 1518
1504 1503 1506 1508 1511 1513 1515 1517 1519 1521 1521 1522 1524 1524 1524 1526 1528 1528 1530 1531 1532 1532 1533 1534 1535 1535 1535 1535 1536 1536 1536 1535 1535 1535 1534 1533 1531 1531 1528 1526 1525 1523 1521
1504 1503 1505 1509 1511 1513 1516 1517 1518 1521 1522 1522 1524 1524 1525 1526 1527 1529 1531 1531 1532 1533 1534 1535 1535 1536 1536 1537 1538 1538 1538 1538 1538 1537 1536 1535 1534 1533 1531 1529 1528 1526 1525
1503 1503 1506 1508 1511 1513 1515 1517 1518 1520 1521 1523 1524 1525 1525 1526 1527 1529 1531 1532 1533 1533 1534 1535 1536 1536 1537 1539 1538 1539 1539 1540 1540 1539 1538 1538 1537 1535 1534 1531 1530 1529 1528
1504 1503 1504 1508 1509 1512 1514 1517 1517 1519 1521 1522 1523 1525 1525 1527 1528 1529 1530 1531 1533 1535 1535 1535 1536 1537 1538 1539 1540 1541 1540 1542 1542 1541 1540 1539 1539 1538 1537 1534 1533 1531 1531
1503 1502 1504 1507 1508 1511 1512 1514 1517 1518 1519 1521 1522 1524 1525 1527 1528 1529 1530 1532 1533 1535 1536 1536 1537 1538 1539 1540 1541 1542 1541 1542 1543 1543 1543 1541 1540 1539 1539 1538 1536 1534 1533
1500 1503 1504 1506 1509 1510 1512 1514 1515 1516 1517 1519 1521 1523 1525 1526 1528 1529 1530 1531 1533 1535 1536 1536 1537 1538 1540 1541 1542 1543 1543 1542 1543 1543 1543 1543 1542 1541 1540 1540 1539 1537 1535
1498 1501 1502 1505 1507 1509 1512 1512 1514 1515 1516 1519 1520 1522 1524 1526 1527 1529 1530 1531 1533 1534 1536 1536 1537 1538 1539 1542 1543 1544 1544 1543 1543 1543 1544 1544 1544 1543 1542 1541 1540 1539 1538
1495 1499 1502 1503 1504 1507 1509 1511 1512 1513 1514 1516 1518 1521 1524 1526 1528 1528 1529 1530 1532 1533 1535 1535 1537 1539 1539 1541 1544 1545 1545 1544 1542 1543 1544 1545 1545 1545 1545 1543 1541 1541 1541
1492 1494 1498 1501 1502 1505 1507 1509 1511 1512 1514 1516 1517 1520 1522 1524 1525 1526 1527 1528 1530 1532 1533 1534 1536 1538 1540 1543 1544 1545 1546 1544 1542 1543 1545 1545 1546 1548 1547 1545 1544 1544 1544
1487 1489 1493 1497 1500 1502 1505 1508 1509 1510 1513 1515 1517 1519 1521 1523 1524 1524 1527 1529 1529 1531 1532 1533 1535 1537 1540 1542 1544 1546 1545 1543 1543 1544 1545 1547 1548 1549 1549 1549 1548 1547 1547
1486 1486 1489 1493 1497 1500 1502 1506 1509 1511 1512 1515 1515 1518 1518 1521 1521 1522 1525 1527 1528 1529 1531 1532 1534 1537 1539 1540 1542 1544 1541 1543 1543 1545 1546 1548 1549 1549 1551 1552 1551 1550 1550
1485 1485 1486 1490 1494 1498 1501 1503 1505 1507 1510 1512 1514 1516 1518 1519 1520 1521 1523 1525 1526 1527 1528 1531 1532 1535 1538 1538 1541 1542 1540 1543 1544 1545 1547 1548 1549 1551 1550 1554 1554 1553 1552
1481 1482 1484 1487 1491 1494 1498 1500 1502 1504 1507 1509 1512 1514 1516 1517 1518 1519 1521 1522 1524 1525 1526 1528 1530 1532 1534 1536 1538 1541 1540 1540 1544 1545 1547 1549 1549 1551 1553 1554 1556 1556 1555
1477 1481 1481 1483 1487 1491 1495 1497 1499 1501 1503 1507 1509 1510 1513 1514 1515 1517 1519 1519 1521 1522 1524 1525 1527 1531 1530 1533 1536 1538 1540 1540 1544 1545 1547 1550 1550 1550 1552 1555 1556 1558 1557
1473 1476 1477 1480 1485 1489 1492 1494 1497 1499 1501 1503 1506 1506 1509 1510 1511 1512 1516 1516 1516 1519 1520 1522 1525 1526 1528 1529 1533 1535 1538 1540 1542 1544 1546 1548 1551 1550 1552 1555 1557 1558 1560
1468 1471 1474 1477 1482 1486 1488 1490 1493 1495 1497 1499 1501 1503 1505 1507 1508 1509 1511 1513 1513 1514 1516 1519 1521 1524 1526 1528 1531 1534 1537 1539 1541 1544 1546 1547 1551 1552 1553 1555 1558 1558 1560
1463 1467 1471 1474 1479 1482 1484 1487 1489 1492 1493 1495 1497 1498 1500 1502 1505 1506 1507 1509 1509 1512 1514 1515 1517 1519 1522 1525 1530 1534 1536 1537 1540 1544 1544 1547 1550 1553 1554 1556 1557 1559 1559
1456 1463 1468 1472 1476 1478 1481 1484 1485 1488 1490 1492 1494 1494 1495 1498 1501 1504 1505 1505 1507 1509 1511 1512 1514 1517 1520 1523 1527 1529 1530 1532 1537 1540 1544 1546 1547 1550 1553 1555 1556 1557 1557
1448 1458 1466 1470 1473 1475 1478 1480 1482 1485 1487 1489 1490 1491 1492 1496 1498 1501 1502 1503 1504 1506 1508 1510 1512 1515 1518 1519 1521 1524 1527 1530 1532 1537 1540 1543 1546 1548 1550 1552 1554 1556 1557
1448 1453 1461 1468 1472 1473 1474 1476 1478 1481 1483 1487 1489 1490 1492 1495 1496 1497 1499 1500 1501 1504 1506 1507 1509 1512 1514 1517 1518 1522 1526 1526 1530 1531 1534 1539 1542 1544 1548 1550 1552 1553 1555
1447 1452 1457 1464 1469 1470 1472 1474 1476 1478 1481 1485 1488 1490 1491 1492 1494 1495 1497 1498 1499 1502 1503 1504 1506 1509 1513 1515 1516 1519 1522 1524 1523 1528 1532 1537 1539 1543 1545 1549 1551 1552 1556